Flag for Australia Weather past 2 weeks in Adelaide, South Australia, Australia

Now
73 °F

Sprinkles. Clear.


Feels Like: 77 °F
Forecast: 54 / 63 °F
Wind: 13 mph from North

Location: Adelaide Airport

Current Time: May 4, 2015 at 5:36:00 PM

Latest Report: May 4, 2015 at 5:00 PM


Visibility: N/A

Pressure: 29.62 "Hg

Humidity: 33%

Dew point: 43 °F

Location of AdelaideLocation

Historic Weather in Adelaide — Graph

°F

Adelaide temperature yesterday

Maximum temperature yesterday: 68 °F (at 4:00 PM)
Minimum temperature yesterday: 52 °F (at 3:30 AM)
Average temperature yesterday: 59 °F

Past Weeks' High & Low Weather Summary

 TemperatureHumidityPressure
High81 °F (May 4, 3:00 PM)100% (Apr 25, 2:00 AM)30.69 "Hg (Apr 25, 2:00 AM)
Low45 °F (Apr 20, 6:00 AM)18% (May 4, 1:30 PM)29.56 "Hg (Apr 24, 11:30 PM)
Average58 °F67%30.20 "Hg
* Reported Apr 19 4:30 PM — May 4 4:30 PM, Adelaide, Weather by CustomWeather, © 2015

Note: Actual official high and low records may vary slightly from our data, if they occured in-between our weather recording intervals... More about our weather records

Advertising

Adelaide weather history for previous 24 hours

 ConditionsComfort  
Time TempWeatherWind HumidityBarometerVisibility
4:30 PM
Mon, May 4
75 °FSunny.16 mph27%29.62 "Hg10 mi
4:00 PM75 °FSunny.16 mph25%29.65 "Hg10 mi
3:30 PM77 °FClear.18 mph22%29.62 "Hg5 mi
3:00 PM81 °FClear.20 mph18%29.62 "Hg4 mi
2:30 PM77 °FLow level haze.16 mph24%29.62 "Hg3 mi
2:00 PM77 °FClear.20 mph22%29.65 "Hg4 mi
1:30 PM79 °FSunny.18 mph18%29.68 "Hg10 mi
12:30 PM75 °FSunny.23 mph24%29.71 "Hg10 mi
12:00 PM75 °FSunny.21 mph22%29.74 "Hg10 mi
11:30 AM73 °FSunny.21 mph25%29.77 "Hg10 mi
11:00 AM72 °FSunny.22 mph29%29.77 "Hg10 mi
10:30 AM72 °FSunny.18 mph29%29.80 "Hg10 mi
10:00 AM70 °FSunny.18 mph31%29.80 "Hg10 mi
9:30 AM68 °FSunny.17 mph33%29.83 "Hg10 mi
9:00 AM68 °FSunny.15 mph35%29.83 "Hg10 mi
8:30 AM68 °FSunny.13 mph38%29.86 "Hg10 mi
8:00 AM63 °FSunny.10 mph52%29.86 "Hg10 mi
7:30 AM61 °FSunny.13 mph55%29.86 "Hg10 mi
7:00 AM59 °FSunny.12 mph59%29.86 "Hg10 mi
6:30 AM59 °FSunny.10 mph59%29.86 "Hg10 mi
6:00 AM61 °FClear.12 mph55%29.86 "Hg10 mi
5:30 AM59 °FClear.12 mph59%29.89 "Hg10 mi
5:00 AM57 °FClear.10 mph67%29.89 "Hg10 mi
4:30 AM57 °FClear.10 mph67%29.89 "Hg10 mi
4:00 AM55 °FClear.10 mph72%29.89 "Hg10 mi
3:30 AM57 °FClear.9 mph67%29.89 "Hg10 mi
3:00 AM57 °FClear.9 mph72%29.92 "Hg10 mi
2:30 AM55 °FClear.7 mph77%29.92 "Hg10 mi
2:00 AM59 °FClear.8 mph68%29.92 "Hg10 mi
1:30 AM59 °FClear.10 mph68%29.92 "Hg10 mi
1:00 AM57 °FClear.9 mph72%29.95 "Hg10 mi
12:30 AM59 °FClear.10 mph68%29.95 "Hg10 mi
12:00 AM61 °FClear.10 mph63%29.95 "Hg10 mi
11:30 PM
Sun, May 3
61 °FClear.12 mph63%29.95 "Hg10 mi
11:00 PM61 °FClear.12 mph63%29.98 "Hg10 mi
10:30 PM59 °FClear.9 mph63%29.98 "Hg10 mi
10:00 PM57 °FClear.7 mph67%30.01 "Hg10 mi
9:30 PM57 °FClear.6 mph72%30.01 "Hg10 mi
9:00 PM57 °FClear.7 mph67%30.01 "Hg10 mi
8:30 PM57 °FClear.7 mph72%30.01 "Hg10 mi
8:00 PM57 °FClear.7 mph72%30.01 "Hg10 mi
7:30 PM59 °FClear.3 mph68%30.04 "Hg10 mi
7:00 PM59 °FClear.5 mph68%30.04 "Hg10 mi
6:30 PM59 °FClear.5 mph68%30.01 "Hg10 mi
6:00 PM61 °FClear.5 mph59%30.01 "Hg10 mi
5:30 PM63 °FClear.6 mph56%30.01 "Hg10 mi
5:00 PM66 °FSunny.6 mph49%30.04 "Hg10 mi
Weather by CustomWeather, © 2015

See weather overviewHow to use our weather pages